EHI
4 2 0 0 0 0 0 0 0 0 0 0 0 0 0 0 0 0 0 0 0 0 0 0 0 0 0 1 2 2 1 1 2 3 4 2 2 3 4 4 3 1 0 0 1 1 1 0 0
2 1 0 0 0 0 0 0 0 0 0 0 0 0 0 0 0 0 0 0 0 0 0 0 0 0 1 1 1 2 2 2 2 2 3 4 4 4 6 6 5 2 0 0 1 1 0 0 0
0 0 0 0 0 0 0 0 0 0 0 0 0 0 0 0 0 0 0 0 0 0 0 0 0 0 1 2 2 2 3 3 2 1 3 5 6 6 7 7 5 3 1 1 1 0 0 0 1
0 0 0 0 0 0 0 0 0 0 0 0 0 0 0 0 0 0 0 0 0 0 0 0 0 0 1 2 2 2 3 3 3 2 4 6 6 5 6 5 3 2 2 1 1 0 1 1 2
0 0 0 0 0 0 0 0 0 0 0 0 0 0 0 0 0 0 0 0 0 0 0 0 0 0 0 1 1 1 2 3 3 4 5 5 4 2 3 2 1 1 1 1 0 1 2 2 3
0 0 0 0 0 0 0 0 0 0 0 0 0 0 0 0 0 0 0 0 0 0 0 0 0 0 0 0 0 0 1 2 3 3 3 3 2 1 1 1 0 0 1 1 0 1 2 3 4
0 0 0 0 0 0 0 0 0 0 0 0 0 0 0 0 0 0 0 0 0 0 0 0 0 0 0 0 0 0 1 1 2 2 2 1 1 0 0 0 0 0 1 1 1 0 1 3 5
0 0 0 0 0 0 0 0 0 0 1 1 0 0 0 0 0 0 0 0 0 0 0 0 0 0 0 0 0 0 0 1 2 2 1 1 0 0 0 0 0 0 1 2 1 0 1 3 4
0 0 0 0 0 0 0 0 0 1 2 2 1 0 0 0 0 0 0 0 0 0 0 0 0 0 0 0 0 0 0 1 1 1 0 0 0 0 0 0 0 0 1 1 1 0 1 1 1
0 0 0 0 0 0 0 0 0 1 2 2 1 0 0 1 0 0 0 0 0 0 0 0 0 0 0 0 0 0 0 1 1 0 0 0 0 0 0 0 0 0 0 0 0 0 0 0 0
0 0 0 0 0 0 0 0 0 1 1 1 0 0 0 0 0 0 0 0 0 0 0 0 0 0 0 0 0 0 0 0 0 0 0 0 0 0 0 0 0 0 0 0 0 0 0 0 0
0 0 0 0 0 0 0 0 0 0 0 0 0 0 0 0 0 0 0 0 0 0 0 0 0 0 0 0 0 0 0 0 0 0 0 0 0 0 0 0 0 0 0 0 0 0 0 0 0
0 0 0 0 0 0 0 0 0 0 0 0 0 0 0 0 0 0 0 0 0 0 0 0 0 0 0 0 0 0 0 0 0 0 0 0 0 0 0 0 0 0 0 0 0 0 0 0 0
0 0 0 0 0 0 0 0 0 0 0 0 0 0 0 0 0 0 0 0 0 0 0 0 0 0 0 0 0 0 0 0 0 0 0 0 0 0 0 0 0 0 0 0 0 0 0 0 0
0 0 0 0 0 0 0 0 0 0 0 0 0 0 0 0 0 0 0 0 0 0 0 0 0 0 0 0 0 0 0 0 0 0 0 0 0 0 0 0 0 0 0 0 0 0 0 0 0
0 0 0 0 0 0 0 0 0 0 0 0 0 0 0 0 0 0 0 0 0 0 0 0 0 0 0 0 0 0 0 0 0 0 0 0 0 0 0 0 0 0 0 0 0 0 0 0 0
0 0 0 0 0 0 0 0 0 0 0 0 0 0 0 0 0 0 0 0 0 0 0 0 0 0 0 0 0 0 0 0 0 0 0 0 0 0 0 0 0 0 0 0 0 0 0 0 0
0 0 0 0 0 0 0 0 0 0 0 0 0 1 1 1 0 0 0 0 0 0 0 0 0 0 0 0 0 0 0 0 0 0 0 0 0 0 0 0 0 0 0 0 0 0 0 0 0
0 0 0 0 0 0 0 0 0 0 0 0 0 1 2 2 1 1 0 0 0 0 0 0 0 0 0 0 0 0 0 0 0 0 0 0 0 0 0 0 0 0 0 0 0 0 0 0 0
0 0 0 0 0 0 0 0 0 0 0 0 0 0 1 2 3 2 1 1 0 0 0 0 0 0 0 0 0 0 0 0 0 0 0 0 0 0 0 0 0 0 0 0 0 0 0 0 0
0 0 0 0 0 0 0 0 0 0 0 0 0 0 1 2 3 3 3 2 1 0 0 0 0 0 0 0 0 0 0 0 0 0 0 0 0 0 0 0 0 0 0 0 0 0 0 0 0
0 0 0 0 0 0 0 0 0 0 0 0 0 0 1 2 3 3 3 3 2 1 0 0 0 0 0 0 0 0 0 0 0 0 0 0 0 0 0 0 0 0 0 0 0 0 0 0 0
0 0 0 0 0 0 0 0 0 0 0 0 0 0 1 2 3 3 3 3 2 1 0 0 0 0 0 0 0 0 0 0 0 0 0 0 0 0 0 0 0 0 0 0 0 0 0 0 0
0 0 0 0 0 0 0 0 0 0 0 0 0 0 0 1 3 3 3 3 2 1 0 0 0 0 0 0 0 0 0 0 0 0 0 0 0 0 0 0 0 0 0 0 0 0 0 0 0
0 0 0 0 0 0 0 0 0 0 0 0 0 0 0 1 3 4 3 3 2 1 0 0 0 0 0 0 0 0 0 0 0 0 0 0 0 0 0 0 0 0 0 0 0 0 0 0 0
0 0 0 0 0 0 0 0 0 0 0 0 0 0 0 1 3 4 4 3 2 1 0 0 0 0 0 0 0 0 0 0 0 0 0 0 0 0 0 0 0 0 0 0 0 0 0 0 0
0 0 0 0 0 0 0 0 0 0 0 0 0 0 0 1 2 3 3 3 2 1 0 0 0 0 0 0 0 0 0 0 0 0 0 0 0 0 0 0 0 0 0 0 0 0 0 0 0
0 0 0 0 0 0 0 0 0 0 0 0 0 0 0 0 1 3 3 3 2 1 0 0 0 0 0 0 0 0 0 0 0 0 0 0 0 0 0 0 0 0 0 0 0 0 0 0 0
0 0 0 0 0 0 0 0 0 0 0 0 0 0 0 0 1 2 3 3 2 1 0 0 0 0 0 0 0 0 0 0 0 0 0 0 0 0 0 0 0 0 0 0 0 0 0 0 0
0 0 0 0 0 0 0 0 0 0 0 0 0 0 0 0 0 1 3 3 2 1 0 0 0 0 0 0 0 0 0 0 0 0 0 0 0 0 0 0 0 0 0 0 0 0 0 0 0
Wind_Speed
3 2 3 4 7 7 3 2 1 2 2 2 3 6 6 4 2 2 1 1 1 2 2 2 4 6 7 8 8 8 9 9 9 9 9 9 9 9 9 9 10 10 10 10 10 10 10 10 10
1 2 4 6 6 4 2 2 2 1 3 3 4 5 5 4 3 3 0 1 1 2 2 3 4 6 7 7 8 8 9 9 9 9 9 9 9 9 9 9 9 9 9 9 9 9 10 10 10
2 4 5 6 5 3 2 0 1 3 3 2 4 4 4 2 2 2 0 1 2 3 3 3 6 7 7 7 8 8 8 8 9 9 9 9 9 9 9 9 9 9 9 9 9 9 9 10 10
3 5 6 7 5 1 1 0 1 3 3 4 4 4 3 2 1 2 3 3 4 3 3 3 6 8 8 7 8 8 8 8 9 9 9 9 9 9 9 9 8 8 8 8 8 9 9 10 11
5 5 7 5 3 1 1 1 1 3 2 3 3 4 2 4 4 5 4 3 4 3 3 3 6 7 8 8 8 8 8 8 9 9 9 9 9 9 8 8 7 7 7 8 8 8 9 9 10
5 5 6 2 1 1 1 1 2 4 3 3 4 4 1 2 4 4 3 3 3 3 3 3 6 7 7 7 7 8 8 8 9 9 9 9 8 8 7 7 6 7 7 7 8 8 8 8 9
5 5 4 3 2 1 1 2 3 4 3 2 3 4 1 1 2 3 4 4 4 4 4 4 4 5 6 6 7 7 8 9 9 9 9 9 8 8 7 7 6 6 7 7 7 8 8 8 9
5 6 4 2 3 1 1 2 2 3 3 2 3 5 3 2 2 5 5 4 4 4 4 4 4 4 4 4 6 7 8 9 9 10 10 10 9 8 8 7 7 8 7 7 8 8 8 9 9
4 6 2 3 4 2 2 3 2 3 4 3 2 2 2 6 6 6 5 4 4 4 4 4 4 4 3 3 5 6 7 8 9 8 10 8 5 5 5 7 9 9 9 9 9 9 9 9 8
5 4 3 2 4 4 3 3 3 4 4 3 3 4 6 7 7 6 4 3 3 2 2 3 3 3 3 3 4 3 4 5 5 4 5 4 4 4 5 7 10 10 10 9 10 10 9 6 3
4 4 2 1 3 4 4 2 2 5 1 3 4 5 7 6 5 5 4 3 3 2 2 2 2 2 3 3 3 3 3 3 4 5 5 4 4 4 4 3 4 5 7 5 6 6 4 3 3
4 2 2 1 2 4 4 3 3 2 3 3 5 8 8 7 6 5 4 3 3 2 1 2 2 2 2 3 2 3 2 2 3 3 4 4 3 4 3 3 3 3 2 3 3 3 4 4 4
3 2 2 3 5 4 5 3 2 0 0 4 6 6 6 6 5 3 3 3 3 3 1 1 2 2 2 3 2 3 2 2 2 3 3 4 3 3 3 3 3 3 2 3 3 3 4 4 4
3 4 3 2 3 2 4 2 2 1 2 5 6 4 4 5 5 3 3 3 3 3 3 2 2 2 3 2 2 2 2 2 2 2 3 3 3 3 3 3 3 3 3 2 2 3 3 3 3
3 5 4 2 1 1 4 2 2 3 4 5 4 3 3 3 4 4 5 4 5 4 3 3 3 3 3 2 2 2 2 2 2 2 2 3 3 3 2 3 3 2 2 3 3 3 3 3 3
4 4 1 2 1 1 3 3 4 3 5 4 3 3 3 3 4 4 4 4 4 4 4 3 3 3 3 2 2 2 2 2 2 2 2 3 3 3 3 2 2 2 2 2 2 3 3 3 3
4 1 1 2 1 2 2 4 3 3 5 5 5 4 4 3 3 3 4 4 4 5 4 4 3 3 3 2 2 2 2 2 1 2 2 2 3 3 3 2 2 2 3 3 2 3 2 2 2
2 1 1 3 2 2 2 4 4 3 5 6 5 5 4 5 6 4 3 3 3 4 4 4 3 3 3 3 2 2 2 2 2 2 2 2 2 3 3 2 3 3 3 3 3 2 2 2 1
3 3 2 4 2 3 4 5 6 3 4 5 5 5 6 7 5 3 3 3 3 3 4 4 4 3 3 2 2 1 1 1 1 1 2 2 2 2 2 2 2 2 2 2 2 2 3 2 2
3 2 2 3 1 3 3 5 6 4 6 7 7 7 7 6 3 3 4 4 4 5 5 4 4 4 4 3 2 2 2 1 1 1 2 2 2 2 2 2 2 2 2 3 3 2 2 2 2
2 4 4 3 2 1 0 5 4 4 3 4 5 6 6 8 7 6 5 5 5 5 5 5 4 4 4 4 3 3 2 2 1 1 1 1 1 1 1 1 2 2 2 1 1 1 2 1 2
3 4 4 2 1 2 1 4 6 3 3 5 6 6 7 7 6 6 6 6 6 6 5 5 5 4 4 4 4 5 3 2 2 1 1 0 1 1 1 1 1 1 1 1 1 2 1 2 1
3 1 2 2 2 1 1 2 8 3 4 7 7 7 8 7 6 7 8 7 6 5 5 4 4 4 4 4 5 4 3 2 1 1 1 0 0 0 1 1 1 1 1 1 1 1 1 1 1
2 4 4 4 3 2 3 3 7 4 6 6 6 7 7 6 5 5 5 5 4 4 4 4 5 4 4 4 4 5 5 4 3 2 2 1 0 0 1 1 1 1 1 0 0 1 1 1 1
4 5 3 4 2 4 2 2 8 6 5 6 6 6 6 6 6 5 5 6 6 5 5 5 5 5 4 4 4 4 5 5 5 4 3 2 1 1 1 0 0 0 0 1 1 1 0 0 1
1 6 5 3 3 4 2 5 8 5 5 4 4 3 3 4 5 6 7 7 7 7 6 6 6 5 5 5 5 4 4 4 3 4 3 3 3 3 2 2 1 1 1 0 1 0 0 0 0
3 2 4 4 1 2 5 6 8 3 4 3 3 2 2 3 5 6 5 6 7 7 7 7 7 5 5 5 5 4 4 4 4 3 3 3 2 2 2 2 2 1 0 0 1 0 1 0 1
3 6 4 3 2 3 5 5 4 5 5 5 4 4 4 4 4 4 5 5 6 7 6 6 6 6 5 5 5 4 4 4 3 3 4 3 3 2 2 2 2 1 1 0 0 0 1 0 1
2 3 3 3 3 4 3 7 5 5 5 5 6 5 5 4 4 4 4 4 5 4 5 5 5 5 4 5 4 4 4 3 3 3 3 3 3 3 3 3 2 2 1 1 1 1 1 1 1
3 4 5 4 3 3 3 8 5 4 5 5 5 5 4 3 3 3 3 3 3 4 4 5 5 5 5 5 4 4 4 4 4 4 3 3 3 3 3 3 3 2 2 2 2 2 1 1 1
Wind_Direction
5 70 76 57 56 55 57 14 33 54 64 43 58 80 89 76 80 122 280 349 13 19 7 12 54 74 72 68 65 64 63 63 69 70 69 70 72 77 81 81 81 80 78 76 72 70 69 70 70
51 82 55 57 75 73 24 355 48 71 134 132 72 70 73 63 65 100 8 0 43 36 18 19 62 75 76 71 68 68 66 65 67 68 69 69 72 77 80 82 82 80 79 77 73 70 69 70 68
77 59 74 66 81 125 144 352 104 72 84 86 76 58 76 83 99 124 163 98 63 45 27 27 63 72 77 75 71 71 70 68 67 68 69 68 70 76 79 80 82 80 77 76 75 72 71 70 69
75 48 55 67 73 98 157 187 129 103 66 51 89 72 59 41 124 132 114 100 78 49 33 39 65 70 70 76 71 69 67 67 69 69 68 66 69 74 77 77 81 82 79 77 75 74 73 71 70
61 72 64 59 47 21 68 101 101 87 79 56 86 92 49 12 73 104 107 102 93 57 38 41 67 70 66 65 69 67 66 69 69 69 67 64 65 68 70 73 75 82 82 77 75 76 76 74 71
58 66 80 87 43 20 51 74 97 74 73 74 84 94 66 34 91 105 104 93 84 69 47 44 62 66 64 65 62 63 66 69 70 67 63 60 59 62 64 68 74 79 80 78 76 77 79 75 72
94 87 107 126 106 46 98 79 92 97 84 98 115 101 90 44 96 104 95 85 70 60 54 39 41 48 54 60 64 61 63 66 66 63 60 57 54 56 58 61 69 78 81 80 78 75 77 77 75
112 97 92 118 137 190 117 80 79 91 100 93 105 127 180 200 125 96 85 76 66 55 49 42 39 38 36 38 52 59 63 62 59 56 55 52 46 43 48 55 64 73 79 78 75 72 71 72 72
82 79 125 181 167 180 130 93 55 68 92 70 71 135 164 130 114 98 82 65 61 57 42 41 42 38 35 40 47 51 58 55 54 49 49 44 28 24 33 46 60 67 70 72 72 71 69 68 64
75 108 185 195 164 147 121 109 126 83 69 49 40 46 98 117 123 122 120 118 101 80 52 45 46 42 41 46 45 37 44 43 43 41 38 33 26 25 39 41 52 56 59 63 67 66 63 59 51
87 135 150 89 135 126 118 98 92 120 129 202 181 152 132 131 134 142 150 152 153 139 90 67 59 50 52 48 51 43 41 39 39 42 40 37 32 29 34 37 41 45 50 49 51 53 48 52 53
92 63 118 121 107 112 126 122 96 133 213 200 168 152 144 149 160 166 168 168 144 126 115 93 78 69 63 59 57 56 50 43 39 37 41 45 39 34 33 37 33 43 46 49 46 51 47 50 52
88 99 69 87 84 94 98 104 129 215 77 109 113 123 150 162 174 180 172 158 144 144 146 122 101 88 77 72 63 65 55 52 45 43 40 48 53 42 39 39 40 41 45 56 57 55 53 50 43
111 97 73 59 85 97 107 83 97 235 126 113 120 142 170 178 176 165 165 167 169 172 170 149 118 104 95 85 76 72 61 60 55 46 41 49 56 56 50 42 39 37 34 42 65 63 59 52 47
95 79 38 16 65 128 108 37 241 204 140 134 152 171 184 192 180 185 191 186 181 178 169 157 141 111 103 97 86 77 66 66 60 49 45 48 53 60 63 59 46 31 36 46 62 58 55 54 47
58 69 48 308 77 123 121 244 257 177 152 172 191 196 201 210 204 205 201 189 178 168 166 164 149 128 116 108 93 75 68 70 61 52 51 50 53 63 67 64 51 36 45 53 61 57 55 47 43
40 90 218 293 259 122 142 236 263 184 173 196 207 207 208 221 228 216 207 195 180 170 163 156 146 138 133 120 103 85 73 66 60 61 52 47 54 59 68 62 52 52 56 51 53 49 58 52 38
199 201 230 241 246 128 190 248 267 212 199 215 217 213 208 217 228 212 198 189 174 162 159 156 145 138 129 115 95 77 63 50 53 61 49 47 54 61 69 64 53 57 64 52 49 52 45 50 36
161 174 234 256 229 165 222 254 266 226 220 234 234 225 221 226 225 202 190 177 158 156 158 160 153 151 135 124 122 115 101 52 40 38 42 47 54 63 74 66 62 58 66 60 60 67 55 35 23
139 167 256 287 221 183 232 265 269 225 219 224 225 225 224 229 217 205 195 183 178 178 175 170 171 164 160 157 153 143 138 138 124 43 34 38 53 54 68 73 71 66 64 52 47 60 66 35 29
206 200 220 240 358 33 340 302 282 264 237 242 239 229 222 217 213 210 200 193 185 184 182 179 181 174 168 151 123 98 77 53 45 37 18 0 41 53 55 68 78 78 88 87 41 70 85 66 7
241 224 205 195 108 278 184 283 286 273 280 253 246 240 233 227 215 209 200 195 194 194 183 177 176 173 167 153 149 147 152 173 201 198 198 341 56 69 66 77 81 85 83 85 43 49 63 102 30
214 115 137 153 147 316 306 232 285 307 278 263 246 238 234 225 211 206 201 197 193 183 177 177 170 167 163 165 166 161 165 180 162 139 142 117 33 51 60 87 86 71 63 69 61 57 52 75 113
116 63 53 52 72 293 253 205 279 251 242 263 251 238 237 226 215 208 201 186 183 172 169 168 171 176 168 168 171 172 175 168 149 159 175 200 261 313 6 77 96 88 78 74 47 85 84 68 77
71 78 29 1 9 260 260 218 255 254 244 240 247 243 244 224 208 201 191 186 185 181 179 176 175 185 179 174 182 189 187 177 179 184 186 184 190 220 239 155 145 125 170 180 130 92 76 102 95
161 137 157 205 231 282 295 242 258 272 283 264 254 251 257 232 208 206 202 192 189 187 183 178 183 190 184 183 193 193 187 182 192 192 186 191 200 207 196 176 178 184 176 147 126 95 244 131 167
124 148 161 138 167 281 282 288 301 318 343 344 334 328 287 259 217 211 206 197 191 187 188 186 187 190 192 193 190 187 190 188 191 193 186 191 199 191 175 179 174 184 194 182 138 173 266 230 228
123 141 98 120 165 264 290 283 276 309 312 322 319 302 290 280 235 210 204 201 194 190 188 183 186 193 197 195 193 192 198 198 190 181 189 192 191 178 172 179 181 180 190 178 160 224 255 236 262
86 96 108 122 155 169 268 274 239 251 279 291 288 286 282 268 247 219 207 203 192 182 174 179 188 191 192 194 196 193 196 193 180 186 200 194 183 177 183 187 186 190 197 197 197 245 237 224 274
170 165 147 158 221 188 207 267 275 270 283 279 282 292 297 276 255 227 202 194 184 181 182 186 192 196 197 191 190 198 194 180 181 194 200 189 182 186 190 185 184 196 199 196 202 235 241 224 249